Flag for Germany Weather past 2 weeks in Bramsche, Lower Saxony, Germany

Now
91 °F

Scattered clouds.


Feels Like: 95 °F
Forecast: 69 / 85 °F
Wind: 5 mph from Northwest

Location: Muenster / Osnabrueck

Current Time: Jul 4, 2015 at 9:03:35 PM

Latest Report: Jul 4, 2015 at 8:00 PM


Visibility: 16 mi

Pressure: 30.06 "Hg

Humidity: 48%

Dew point: 68 °F

Location of BramscheLocation

Historic Weather in Bramsche — Graph

°F

Bramsche temperature yesterday

Maximum temperature yesterday: 87 °F (at 6:00 PM)
Minimum temperature yesterday: 67 °F (at 7:00 AM)
Average temperature yesterday: 78 °F

Past Weeks' High & Low Weather Summary

 TemperatureHumidityPressure
High99 °F (Jul 4, 4:00 PM)97% (Jun 22, 1:00 AM)30.26 "Hg (Jun 22, 1:00 AM)
Low46 °F (Jun 23, 6:00 AM)25% (Jul 2, 5:00 PM)29.68 "Hg (Jun 22, 9:00 PM)
Average66 °F67%30.07 "Hg
* Reported Jun 19 8:00 PM — Jul 4 8:00 PM, Bramsche, Weather by CustomWeather, © 2015

Note: Actual official high and low records may vary slightly from our data, if they occured in-between our weather recording intervals... More about our weather records

Advertising

Bramsche weather history for previous 24 hours

 ConditionsComfort  
Time TempWeatherWind HumidityBarometerVisibility
8:00 PM
Sat, Jul 4
91 °FScattered clouds.5 mph48%30.06 "Hg16 mi
7:00 PM94 °FPassing clouds.6 mph40%30.04 "Hg16 mi
6:00 PM96 °FScattered clouds.8 mph36%30.03 "Hg12 mi
5:00 PM97 °FScattered clouds.6 mph36%30.03 "Hg16 mi
4:00 PM99 °FScattered clouds.7 mph31%30.03 "Hg16 mi
3:00 PM98 °FScattered clouds.5 mph31%30.02 "Hg16 mi
2:00 PM96 °FOvercast.5 mph38%30.03 "Hg12 mi
1:00 PM96 °FOvercast.3 mph37%30.03 "Hg12 mi
12:00 PM94 °FOvercast.3 mph42%30.03 "Hg16 mi
11:00 AM89 °FOvercast.3 mph50%30.04 "Hg12 mi
10:00 AM84 °FOvercast.2 mph59%30.06 "Hg9 mi
9:00 AM79 °FOvercast.2 mph67%30.07 "Hg9 mi
8:00 AM75 °FOvercast.1 mph77%30.08 "Hg9 mi
7:00 AM69 °FFog.No wind90%30.08 "Hg6 mi
6:00 AM65 °FFog.No wind96%30.10 "Hg1 mi
5:00 AM67 °FFog.No wind96%30.11 "Hg1 mi
4:00 AM69 °FClear.1 mph90%30.12 "Hg7 mi
3:00 AM70 °FPassing clouds.2 mph88%30.14 "Hg8 mi
2:00 AM70 °FPassing clouds.1 mph89%30.17 "Hg9 mi
1:00 AM72 °FPassing clouds.1 mph83%30.18 "Hg12 mi
12:00 AM74 °FPassing clouds.1 mph81%30.19 "Hg12 mi
11:00 PM
Fri, Jul 3
76 °FPassing clouds.2 mph77%30.20 "Hg12 mi
10:00 PM79 °FPassing clouds.3 mph67%30.20 "Hg12 mi
9:00 PM83 °FPassing clouds.2 mph59%30.20 "Hg16 mi
Weather by CustomWeather, © 2015

See weather overviewHow to use our weather pages